This is the latest recevied weather packets stored in our database for station/object KD8FRE. If no packets are shown the sender has not sent any weather packets the latest 10 day(s).
| Time | Temp. | Humidity | Pressure | Rain* | Wind** | Luminosity | Snow |
|---|---|---|---|---|---|---|---|
| 1778092788 | 9.44° C | 47% | 1013 hPa | 0 mm | - | 275 W/m² | - |
| 1778092484 | 9.44° C | 48% | 1013.1 hPa | 0 mm | - | 199 W/m² | - |
| 1778092181 | 9.44° C | 50% | 1013 hPa | 0 mm | - | 116 W/m² | - |
| 1778091878 | 9.44° C | 49% | 1013 hPa | 0 mm | - | 120 W/m² | - |
| 1778091576 | 9.44° C | 48% | 1013.2 hPa | 0 mm | - | 103 W/m² | - |
| 1778091274 | 10° C | 47% | 1013.1 hPa | 0 mm | - | 137 W/m² | - |
| 1778090970 | 9.44° C | 50% | 1012.9 hPa | 0 mm | - | 221 W/m² | - |
| 1778090666 | 9.44° C | 48% | 1013.3 hPa | 0 mm | - | 378 W/m² | - |
| 1778090363 | 9.44° C | 48% | 1013.2 hPa | 0 mm | - | 152 W/m² | - |
| 1778090060 | 9.44° C | 48% | 1013.2 hPa | 0 mm | - | 138 W/m² | - |
| 1778089757 | 10° C | 46% | 1013.3 hPa | 0 mm | - | 283 W/m² | - |
| 1778089454 | 10° C | 48% | 1013.3 hPa | 0 mm | - | 341 W/m² | - |
| 1778089152 | 9.44° C | 46% | 1013.5 hPa | 0 mm | - | 173 W/m² | - |
| 1778088848 | 9.44° C | 48% | 1013.5 hPa | 0 mm | - | 193 W/m² | - |
| 1778088546 | 10° C | 48% | 1013.7 hPa | 0 mm | - | 212 W/m² | - |
| 1778088242 | 10° C | 50% | 1013.8 hPa | 0 mm | - | 327 W/m² | - |
| 1778087939 | 10° C | 48% | 1013.7 hPa | 0 mm | - | 302 W/m² | - |
| 1778087637 | 9.44° C | 50% | 1013.3 hPa | 0 mm | - | 236 W/m² | - |
| 1778087335 | 8.89° C | 47% | 1013.3 hPa | 0 mm | - | 273 W/m² | - |
| 1778087030 | 8.89° C | 49% | 1013.5 hPa | 0 mm | - | 274 W/m² | - |
| 1778086730 | 8.89° C | 51% | 1013.4 hPa | 0 mm | - | 275 W/m² | - |
| 1778086427 | 8.89° C | 50% | 1013.4 hPa | 0 mm | - | 154 W/m² | - |
| 1778086123 | 8.89° C | 53% | 1013.5 hPa | 0 mm | - | 158 W/m² | - |
| 1778085820 | 8.89° C | 53% | 1013.4 hPa | 0 mm | - | 332 W/m² | - |
| 1778085517 | 8.89° C | 53% | 1013.4 hPa | 0 mm | - | 380 W/m² | - |
* Rain latest hour (hover to see other rain measurements)
** Current wind speed in m/s (hover to see current wind gust speed)